Ardmore Downtown, OK

4:00 PM CDT on September 20, 2017 (GMT -0500)
Ardmore Downtown

Weather History for K1F0 - August, 2012

Change the Weather History Date:

Monday, August 13, 2012

  Actual Average (KADM) Record (KADM)
Temperature  
Mean Temperature 84 °F -  
Max Temperature 96 °F 92 °F 104 °F (2010)
Min Temperature 71 °F 70 °F 62 °F (2004)
Cooling Degree Days 20    
Growing Degree Days 34 (Base 50)    
Moisture  
Dew Point 53 °F    
Average Humidity 38    
Maximum Humidity 83    
Minimum Humidity 16    
Precipitation  
Precipitation 0.00 in - - ()
Sea Level Pressure  
Sea Level Pressure 29.97 in    
Wind  
Wind Speed 3 mph (NNE)    
Max Wind Speed 10 mph    
Max Gust Speed 20 mph    
Visibility 10 miles    
Events      
Averages and records for this station are not official NWS values.
T = Trace of Precipitation, MM = Missing Value Source: NWS Daily Summary

Daily Weather History Graph

Daily Weather History Graph

Search for Another Location

Airport or City:

Trip Planner

Search our weather history database for the weather conditions in past years. The results will help you decide how hot, cold, wet, or windy it might be!

Date:

Astronomy

Aug. 13, 2012 Rise Set
Actual Time 6:48 AM CDT 8:17 PM CDT
Civil Twilight 6:22 AM CDT 8:43 PM CDT
Nautical Twilight 5:50 AM CDT 9:15 PM CDT
Astronomical Twilight 5:16 AM CDT 9:48 PM CDT
Moon 2:58 AM CDT (8/13) 5:25 PM CDT (8/13)
Length of Visible Light 14h 21m
Length of Day
13h 28m
Waning Crescent, 16% of the Moon is Illuminated
Aug 13
Waning Crescent
Aug 17
New
Aug 24
First Quarter
Aug 31
Full
Sep 8
Last Quarter

Hourly Weather History & Observations

Time (CDT) Temp. Heat Index Dew Point Humidity Pressure Visibility Wind Dir Wind Speed Gust Speed Precip Events Conditions
12:15 AM 77.0 °F - 68.0 °F 74% 29.91 in 10.0 mi North 3.5 mph - N/A   Clear
12:35 AM 78.8 °F - 68.0 °F 69% 29.92 in 10.0 mi Calm Calm - N/A   Clear
12:55 AM 78.8 °F - 68.0 °F 69% 29.93 in 10.0 mi Calm Calm - N/A   Clear
1:15 AM 77.0 °F - 68.0 °F 74% 29.92 in 10.0 mi Calm Calm - N/A   Clear
1:35 AM 75.2 °F - 68.0 °F 78% 29.92 in 10.0 mi Calm Calm - N/A   Clear
1:55 AM 75.2 °F - 68.0 °F 78% 29.93 in 10.0 mi North 3.5 mph - N/A   Clear
2:15 AM 77.0 °F - 68.0 °F 74% 29.92 in 10.0 mi Calm Calm - N/A   Clear
2:35 AM 73.4 °F - 68.0 °F 83% 29.92 in 10.0 mi Calm Calm - N/A   Clear
2:55 AM 73.4 °F - 66.2 °F 78% 29.93 in 10.0 mi Calm Calm - N/A   Clear
3:15 AM 73.4 °F - 68.0 °F 83% 29.93 in 10.0 mi Calm Calm - N/A   Clear
3:35 AM 73.4 °F - 66.2 °F 78% 29.93 in 10.0 mi Calm Calm - N/A   Clear
3:55 AM 78.8 °F - 62.6 °F 57% 29.94 in 10.0 mi NNE 5.8 mph - N/A   Clear
4:15 AM 80.6 °F 81.5 °F 60.8 °F 51% 29.94 in 10.0 mi NNE 8.1 mph - N/A   Clear
4:35 AM 80.6 °F 80.8 °F 57.2 °F 45% 29.94 in 10.0 mi NE 8.1 mph - N/A   Clear
4:55 AM 78.8 °F - 59.0 °F 51% 29.95 in 10.0 mi NE 3.5 mph - N/A   Clear
5:15 AM 78.8 °F - 59.0 °F 51% 29.95 in 10.0 mi Calm Calm - N/A   Clear
5:35 AM 77.0 °F - 59.0 °F 54% 29.96 in 10.0 mi ENE 4.6 mph - N/A   Clear
5:55 AM 77.0 °F - 59.0 °F 54% 29.97 in 10.0 mi NE 4.6 mph - N/A   Clear
6:15 AM 75.2 °F - 59.0 °F 57% 29.97 in 10.0 mi NE 3.5 mph - N/A   Clear
6:35 AM 77.0 °F - 59.0 °F 54% 29.97 in 10.0 mi NNE 5.8 mph - N/A   Clear
6:55 AM 75.2 °F - 59.0 °F 57% 29.98 in 10.0 mi NNE 3.5 mph - N/A   Clear
7:15 AM 77.0 °F - 57.2 °F 50% 29.99 in 10.0 mi Calm Calm - N/A   Clear
7:35 AM 77.0 °F - 57.2 °F 50% 29.99 in 10.0 mi Calm Calm - N/A   Clear
7:55 AM 78.8 °F - 57.2 °F 47% 29.99 in 10.0 mi Calm Calm - N/A   Clear
8:15 AM 78.8 °F - 55.4 °F 44% 30.00 in 10.0 mi Calm Calm - N/A   Clear
8:35 AM 80.6 °F 80.5 °F 55.4 °F 42% 30.01 in 10.0 mi ENE 3.5 mph - N/A   Clear
8:55 AM 82.4 °F 81.7 °F 55.4 °F 39% 30.02 in 10.0 mi ENE 3.5 mph - N/A   Clear
9:15 AM 84.2 °F 82.8 °F 53.6 °F 35% 30.02 in 10.0 mi NE 5.8 mph - N/A   Clear
9:35 AM 86.0 °F 84.2 °F 53.6 °F 33% 30.02 in 10.0 mi NE 4.6 mph - N/A   Clear
9:55 AM 86.0 °F 84.2 °F 53.6 °F 33% 30.02 in 10.0 mi NNE 6.9 mph - N/A   Clear
10:15 AM 87.8 °F 85.7 °F 53.6 °F 31% 30.03 in 10.0 mi East 8.1 mph - N/A   Clear
10:35 AM 87.8 °F 85.7 °F 53.6 °F 31% 30.03 in 10.0 mi NE 9.2 mph - N/A   Clear
10:55 AM 87.8 °F 85.7 °F 53.6 °F 31% 30.03 in 10.0 mi ENE 6.9 mph - N/A   Clear
11:15 AM 89.6 °F - 51.8 °F 27% 30.03 in 10.0 mi NE 9.2 mph - N/A   Clear
11:35 AM 89.6 °F - 51.8 °F 27% 30.03 in 10.0 mi NNE 8.1 mph - N/A   Clear
11:55 AM 91.4 °F - 50.0 °F 24% 30.03 in 10.0 mi NE 8.1 mph - N/A   Clear
12:15 PM 91.4 °F - 50.0 °F 24% 30.03 in 10.0 mi North 5.8 mph - N/A   Clear
12:35 PM 91.4 °F - 50.0 °F 24% 30.02 in 10.0 mi NW 6.9 mph - N/A   Clear
12:55 PM 93.2 °F - 50.0 °F 23% 30.01 in 10.0 mi NE 8.1 mph - N/A   Clear
1:15 PM 95.0 °F - 46.4 °F 19% 30.01 in 10.0 mi North 6.9 mph 19.6 mph N/A   Clear
1:35 PM 95.0 °F - 46.4 °F 19% 30.00 in 10.0 mi NNE 6.9 mph 16.1 mph N/A   Clear
1:55 PM 95.0 °F - 50.0 °F 22% 30.00 in 10.0 mi NNE 8.1 mph - N/A   Clear
2:15 PM 96.8 °F - 46.4 °F 18% 29.99 in 10.0 mi NNE 9.2 mph 16.1 mph N/A   Clear
2:35 PM 96.8 °F - 46.4 °F 18% 29.98 in 10.0 mi North 6.9 mph - N/A   Clear
2:55 PM 96.8 °F - 44.6 °F 17% 29.98 in 10.0 mi North 3.5 mph - N/A   Clear
3:15 PM 96.8 °F - 44.6 °F 17% 29.97 in 10.0 mi NE 9.2 mph 17.3 mph N/A   Clear
3:35 PM 96.8 °F - 44.6 °F 17% 29.97 in 10.0 mi ENE 8.1 mph - N/A   Clear
3:55 PM 96.8 °F - 44.6 °F 17% 29.96 in 10.0 mi NE 6.9 mph - N/A   Clear
4:15 PM 96.8 °F - 44.6 °F 17% 29.96 in 10.0 mi NNE 10.4 mph - N/A   Clear
4:35 PM 96.8 °F - 44.6 °F 17% 29.95 in 10.0 mi North 5.8 mph 16.1 mph N/A   Clear
4:55 PM 96.8 °F - 44.6 °F 17% 29.95 in 10.0 mi NNE 5.8 mph 17.3 mph N/A   Clear
5:15 PM 96.8 °F - 44.6 °F 17% 29.94 in 10.0 mi North 4.6 mph - N/A   Clear
5:35 PM 96.8 °F - 42.8 °F 16% 29.94 in 10.0 mi NNE 8.1 mph - N/A   Clear
5:55 PM 96.8 °F - 42.8 °F 16% 29.93 in 10.0 mi NNE 8.1 mph - N/A   Clear
6:15 PM 96.8 °F - 42.8 °F 16% 29.93 in 10.0 mi NNE 8.1 mph - N/A   Clear
6:35 PM 95.0 °F - 42.8 °F 16% 29.93 in 10.0 mi NNE 9.2 mph - N/A   Clear
6:55 PM 95.0 °F - 42.8 °F 16% 29.92 in 10.0 mi North 5.8 mph 16.1 mph N/A   Clear
7:15 PM 93.2 °F - 42.8 °F 17% 29.92 in 10.0 mi North 4.6 mph - N/A   Clear
7:35 PM 93.2 °F - 44.6 °F 19% 29.92 in 10.0 mi North 4.6 mph - N/A   Clear
7:55 PM 91.4 °F - 44.6 °F 20% 29.92 in 10.0 mi North 3.5 mph - N/A   Clear
8:15 PM 89.6 °F - 44.6 °F 21% 29.93 in 10.0 mi Calm Calm - N/A   Clear
8:35 PM 87.8 °F - 44.6 °F 22% 29.93 in 10.0 mi Calm Calm - N/A   Clear
8:55 PM 87.8 °F - 44.6 °F 22% 29.93 in 10.0 mi Calm Calm - N/A   Clear
9:15 PM 82.4 °F - 46.4 °F 28% 29.94 in 10.0 mi Calm Calm - N/A   Clear
9:35 PM 82.4 °F - 46.4 °F 28% 29.96 in 10.0 mi Calm Calm - N/A   Clear
9:55 PM 77.0 °F - 50.0 °F 39% 29.97 in 10.0 mi Calm Calm - N/A   Clear
10:15 PM 77.0 °F - 48.2 °F 36% 29.97 in 10.0 mi Calm Calm - N/A   Clear
10:35 PM 77.0 °F - 50.0 °F 39% 29.98 in 10.0 mi Calm Calm - N/A   Clear
10:55 PM 73.4 °F - 51.8 °F 47% 29.98 in 10.0 mi Calm Calm - N/A   Clear
11:15 PM 75.2 °F - 50.0 °F 41% 29.99 in 10.0 mi Calm Calm - N/A   Clear
11:35 PM 75.2 °F - 50.0 °F 41% 29.99 in 10.0 mi Calm Calm - N/A   Clear
11:55 PM 71.6 °F - 50.0 °F 46% 29.99 in 10.0 mi Calm Calm - N/A   Clear